Orbital Elements at Epoch 2453699.5 (2005-Nov-25.0) TDB
Reference: JPL 17 (heliocentric ecliptic J2000)
Element | Value | Uncertainty (1-sigma) | Units |
e | .3737353379743349 | 1.6245e-06 | |
a | 3.893370812847191 | 5.9953e-07 | au |
q | 2.438280556248335 | 6.6797e-06 | au |
i | 25.14827693764454 | 7.7587e-05 | deg |
node | 220.9675453959906 | 3.2326e-05 | deg |
peri | 346.6191335549511 | 0.0013808 | deg |
M | 79.76665469969763 | 0.0005841 | deg |
tp | 2453077.764081210838 (2004-Mar-13.26408121) | 0.0044124 | TDB |
period | 2805.996209904322 7.68 | 0.00064813 1.774e-06 | d yr |
n | .1282966807757289 | 2.9634e-08 | deg/d |
Q | 5.348461069446047 | 8.2359e-07 | au |
|
| | Orbit Determination Parameters
Additional Information
|